User: anonymous   Login
Location: Bletchingley
(51.2333°N, 0.1000°W)
Time: 23:33:18
(UTC+00:00)
Language:

MOS 1 - Orbit

View from above orbital plane
View from above orbital plane
View from above satellite
View from above satellite

Ground track
Ground track

The orbit data is extracted from the following two-line orbital elements,

1 17527U 87018A   20332.35752286 +.00000103 +00000-0 +96176-4 0  9991
2 17527 099.1362 015.6448 0009067 064.1812 306.9899 14.02566716725754
Epoch (UTC): 27 November 2020 08:34:49
Eccentricity: 0.0009067
inclination: 99.1362°
perigee height: 878 km
apogee height: 891 km
right ascension of ascending node: 15.6448°
argument of perigee: 64.1812°
revolutions per day: 14.02566716
mean anomaly at epoch: 306.9899°
orbit number at epoch: 72575

The dashed part of the orbit path shows where the satellite is in the earth's shadow,  

DLR